TimeEET,TemperatureF,Dew PointF,Humidity,Sea Level PressureIn,VisibilityMPH,Wind Direction,Wind SpeedMPH,Gust SpeedMPH,PrecipitationIn,Events,Conditions,WindDirDegrees,DateUTC
12:20 AM,55.4,50.0,82,29.56,5.0,SE,15.0,-,N/A,Rain,Light Rain,140,2012-12-08 22:20:00
12:50 AM,55.4,50.0,82,29.53,4.3,SSE,17.3,-,N/A,Rain,Light Rain,150,2012-12-08 22:50:00
1:20 AM,55.4,50.0,82,29.53,4.3,SSE,17.3,-,N/A,Rain,Light Rain,150,2012-12-08 23:20:00
1:50 AM,48.2,44.6,87,29.56,2.5,West,17.3,28.8,N/A,Rain,Rain,270,2012-12-08 23:50:00
2:00 AM,48,44,81,29.57,2,West,17.3,,,Rain,Rain,270,2012-12-09 00:00:00
2:20 AM,46.4,44.6,93,29.56,4.3,WNW,11.5,-,N/A,Rain,Light Rain,300,2012-12-09 00:20:00
2:50 AM,46.4,42.8,87,29.56,4.3,South,4.6,-,N/A,Rain,Light Rain,180,2012-12-09 00:50:00
3:20 AM,46.4,42.8,87,29.56,5.6,South,4.6,-,N/A,,Overcast,180,2012-12-09 01:20:00
3:50 AM,46.4,44.6,93,29.56,5.0,Variable,3.5,-,N/A,,Overcast,0,2012-12-09 01:50:00
4:20 AM,46.4,44.6,93,29.56,5.0,Variable,3.5,-,N/A,,Overcast,0,2012-12-09 02:20:00
4:50 AM,46.4,44.6,93,29.56,6.2,ESE,5.8,-,N/A,,Overcast,110,2012-12-09 02:50:00
5:50 AM,48.2,44.6,87,29.53,6.2,Variable,3.5,-,N/A,,Mostly Cloudy,0,2012-12-09 03:50:00
6:20 AM,48.2,46.4,93,29.56,6.2,West,4.6,-,N/A,,Mostly Cloudy,280,2012-12-09 04:20:00
6:50 AM,48.2,44.6,87,29.56,6.2,SW,4.6,-,N/A,,Mostly Cloudy,220,2012-12-09 04:50:00
7:20 AM,46.4,46.4,100,29.56,5.0,Variable,3.5,-,N/A,,Mostly Cloudy,0,2012-12-09 05:20:00
7:50 AM,46.4,44.6,93,29.56,5.0,Calm,Calm,-,N/A,,Mostly Cloudy,0,2012-12-09 05:50:00
8:00 AM,47,44,86,29.59,5,Calm,Calm,,,,Mist,,2012-12-09 06:00:00
8:20 AM,46.4,44.6,93,29.59,5.0,Calm,Calm,-,N/A,,Mostly Cloudy,0,2012-12-09 06:20:00
8:50 AM,46.4,44.6,93,29.59,3.7,Calm,Calm,-,N/A,,Mostly Cloudy,0,2012-12-09 06:50:00
9:20 AM,48.2,44.6,87,29.59,5.0,Calm,Calm,-,N/A,,Mostly Cloudy,0,2012-12-09 07:20:00
9:50 AM,50.0,48.2,94,29.59,6.2,NW,9.2,-,N/A,,Mostly Cloudy,310,2012-12-09 07:50:00
10:20 AM,50.0,46.4,87,29.62,6.2,NW,6.9,-,N/A,,Mostly Cloudy,310,2012-12-09 08:20:00
10:50 AM,50.0,46.4,87,29.62,6.2,NW,4.6,-,N/A,,Mostly Cloudy,310,2012-12-09 08:50:00
11:20 AM,50.0,46.4,87,29.62,6.2,NW,13.8,-,N/A,,Mostly Cloudy,310,2012-12-09 09:20:00
11:50 AM,50.0,42.8,76,29.59,6.2,NW,13.8,-,N/A,,Mostly Cloudy,320,2012-12-09 09:50:00
12:20 PM,51.8,42.8,71,29.59,6.2,NW,13.8,-,N/A,,Overcast,320,2012-12-09 10:20:00
12:50 PM,48.2,41.0,76,29.59,6.2,NW,18.4,-,N/A,,Overcast,310,2012-12-09 10:50:00
1:20 PM,48.2,41.0,76,29.56,6.2,NW,17.3,-,N/A,,Overcast,310,2012-12-09 11:20:00
1:50 PM,50.0,41.0,71,29.56,6.2,NW,15.0,-,N/A,,Overcast,320,2012-12-09 11:50:00
2:00 PM,49,41,66,29.58,6,NW,15.0,,,,Overcast,320,2012-12-09 12:00:00
2:20 PM,46.4,39.2,76,29.56,6.2,NW,20.7,-,N/A,,Overcast,310,2012-12-09 12:20:00
2:50 PM,46.4,39.2,76,29.56,6.2,NNW,21.9,-,N/A,Rain,Light Rain,330,2012-12-09 12:50:00
3:20 PM,48.2,39.2,71,29.59,6.2,NNW,9.2,-,N/A,,Mostly Cloudy,340,2012-12-09 13:20:00
3:50 PM,44.6,37.4,76,29.59,6.2,NW,11.5,-,N/A,,Mostly Cloudy,320,2012-12-09 13:50:00
4:20 PM,44.6,39.2,81,29.59,6.2,NW,18.4,-,N/A,,Mostly Cloudy,320,2012-12-09 14:20:00
4:50 PM,44.6,37.4,76,29.59,6.2,NW,20.7,-,N/A,,Mostly Cloudy,320,2012-12-09 14:50:00
5:20 PM,44.6,35.6,71,29.62,6.2,NNW,17.3,28.8,N/A,,Mostly Cloudy,330,2012-12-09 15:20:00
5:50 PM,42.8,33.8,70,29.62,6.2,North,11.5,-,N/A,,Mostly Cloudy,350,2012-12-09 15:50:00
6:20 PM,42.8,32.0,66,29.65,6.2,NNW,16.1,-,N/A,,Mostly Cloudy,330,2012-12-09 16:20:00
6:50 PM,41.0,32.0,70,29.65,6.2,NNW,16.1,-,N/A,,Mostly Cloudy,340,2012-12-09 16:50:00
7:20 PM,39.2,30.2,70,29.68,6.2,North,15.0,26.5,N/A,,Partly Cloudy,350,2012-12-09 17:20:00
7:50 PM,37.4,28.4,70,29.68,6.2,North,13.8,25.3,N/A,,Scattered Clouds,350,2012-12-09 17:50:00
8:00 PM,38,29,60,29.70,6,North,13.8,,,,Partly Cloudy,350,2012-12-09 18:00:00
8:20 PM,37.4,28.4,70,29.68,6.2,NNW,20.7,32.2,N/A,,Scattered Clouds,330,2012-12-09 18:20:00
8:50 PM,37.4,28.4,70,29.71,6.2,NNW,17.3,28.8,N/A,,Scattered Clouds,340,2012-12-09 18:50:00
9:20 PM,37.4,28.4,70,29.71,6.2,NNW,20.7,32.2,N/A,,Scattered Clouds,340,2012-12-09 19:20:00
9:50 PM,37.4,26.6,65,29.74,6.2,NNW,17.3,28.8,N/A,,Mostly Cloudy,340,2012-12-09 19:50:00
10:20 PM,35.6,26.6,70,29.74,6.2,NNW,17.3,28.8,N/A,,Mostly Cloudy,340,2012-12-09 20:20:00
10:50 PM,35.6,24.8,65,29.74,6.2,NNW,19.6,31.1,N/A,,Mostly Cloudy,340,2012-12-09 20:50:00
11:20 PM,35.6,24.8,65,29.77,6.2,NNW,19.6,31.1,N/A,,Mostly Cloudy,340,2012-12-09 21:20:00
11:50 PM,35.6,24.8,65,29.74,6.2,NNW,23.0,34.5,N/A,,Mostly Cloudy,340,2012-12-09 21:50:00